Погода в Соколовке

Россия / Приморский край     44°07′09″N   133°52′00″E
темп.,
°C
ветер,
м/с
пор.,
м/с
влажн.,
%
обл.,
%
осадки,
мм/ч
давл.,
гПа
погр.,
м
8 мая, сб
сб801:00+7ююз1487100 0.4 989227
04:00+6зюз41093100 1.9 992870
07:00+7зюз41091100 0.4 9941027
10:00+12зюз48615 0.4 9951115
13:00+16зюз41142100 0.0 9951728
16:00+16юв3940100 0.0 9911402
19:00+14ююз395097 0.0 991963
22:00+8ююв31177100 0.4 991811
9 мая, вс
вс901:00+7ююз1495100 5.8 991284
04:00+6юз229494 7.6 99154
07:00+6зсз1491100 0.9 992634
10:00+4зюз2797100 4.2 994756
13:00+5з3793100 2.1 996834
16:00+5з4793100 2.8 997925
19:00+4зсз2596100 0.8 1000950
22:00+3з1598100 1.7 1003637
10 мая, пн
пн1001:00+3зсз3798100 0.6 1003730
04:00+3зсз2598100 1.1 1005506
07:00+3зсз1599100 0.2 1007506
10:00+3зсз1498100 0.6 1009618
13:00+5зсз2496100 0.2 1010569
16:00+5сз2597100 0.4 1011658
19:00+5зсз1497100 0.1 1013423
22:00+4юз1198100 0.1 101326
11 мая, вт
вт1101:00+4зюз1198100 0.0 101535
04:00+4зсз1199100 0.0 101520
07:00+5сз1197100 0.0 101691
10:00+8ссз227795 0.1 1016848
13:00+10с226094 0.3 10161286
16:00+12с125595 0.5 10151351
19:00+11ссз00615 0.1 101539
22:00+5ююв22853 0.1 101742
12 мая, ср
ср1201:00+3ююв239749 0.0 101864
04:00+3ююв2396100 0.0 101886
07:00+4ююв3591100 0.0 1017233
10:00+9ююв3666100 0.0 1016616
13:00+11ю4855100 0.0 10151136
16:00+13ю495195 0.0 10121348
19:00+12ю395871 0.0 10111045
22:00+7ююв3679100 0.0 1014228